Home   Weather   43°05'N, 87°55'W   Past weeks
Flag for USA

Past Weather in 43°05'N, 87°55'W, USA — Yesterday and Last 2 Weeks

Now
54 °F

Fog.


Feels Like: 50 °F
Forecast: 65 / 54 °F
Wind: 10 mph from North

Location: Milwaukee / Timmerman

Current Time: Jun 20, 2019 at 8:20:49 am

Latest Report: Jun 20, 2019 at 7:15 am


Visibility: 4 mi

Pressure: 29.73 "Hg

Humidity: 94%

Dew Point: 52 °F

Location of 43°05'N, 87°55'WLocation

Past Weather in 43°05'N, 87°55'W — Graph

°F

43°05'N, 87°55'W Temperature Yesterday

Maximum temperature yesterday: 64 °F (at 12:15 am)
Minimum temperature yesterday: 54 °F (at 10:45 am)
Average temperature yesterday: 59 °F

High & Low Weather Summary for the Past Weeks

 TemperatureHumidityPressure
High79 °F (Jun 5, 12:45 pm)100% (Jun 7, 7:00 am)30.19 "Hg (Jun 7, 7:00 am)
Low46 °F (Jun 14, 4:15 am)22% (Jun 11, 12:45 pm)29.66 "Hg (Jun 20, 3:55 am)
Average59 °F69%29.93 "Hg
* Reported Jun 5 7:15 am — Jun 20 7:15 am, 43°05'N, 87°55'W. Weather by CustomWeather, © 2019

Note: Actual official high and low records may vary slightly from our data, if they occured in-between our weather recording intervals... More about our weather records

Advertising

43°05'N, 87°55'W Weather History for the Previous 24 Hours

Scroll right to see more
 ConditionsComfort  
Time TempWeatherWind HumidityBarometerVisibility
7:15 am
Thu, Jun 20
54 °FFog.10 mph94%29.73 "Hg4 mi
7:00 am55 °FFog.7 mph88%29.72 "Hg5 mi
6:35 am54 °FLow clouds.10 mph88%29.71 "Hg7 mi
6:15 am54 °FLow clouds.8 mph88%29.69 "Hg7 mi
5:55 am54 °FLow clouds.9 mph88%29.68 "Hg10 mi
5:35 am54 °FLow clouds.8 mph88%29.67 "Hg10 mi
5:15 am54 °FLow clouds.10 mph88%29.67 "Hg10 mi
4:55 am55 °FDrizzle. Overcast.10 mph88%29.66 "Hg10 mi
4:35 am55 °FLight rain. Overcast.10 mph88%29.67 "Hg7 mi
4:15 am55 °FRain. Overcast.7 mph88%29.67 "Hg10 mi
3:55 am55 °FLight rain. Overcast.8 mph88%29.66 "Hg10 mi
3:35 am55 °FLight rain. Overcast.8 mph88%29.67 "Hg10 mi
3:15 am55 °FOvercast.9 mph88%29.67 "Hg10 mi
2:55 am55 °FOvercast.9 mph88%29.67 "Hg10 mi
2:35 am55 °FMostly cloudy.10 mph88%29.67 "Hg10 mi
2:15 am55 °FOvercast.10 mph88%29.68 "Hg10 mi
1:55 am55 °FDrizzle. Mostly cloudy.8 mph88%29.68 "Hg10 mi
1:35 am55 °FDrizzle. Overcast.8 mph88%29.69 "Hg10 mi
1:15 am55 °FDrizzle. Overcast.9 mph88%29.69 "Hg7 mi
12:55 am55 °FDrizzle. Mostly cloudy.6 mph88%29.70 "Hg7 mi
12:35 am55 °FLight rain. Mostly cloudy.7 mph88%29.71 "Hg5 mi
12:15 am55 °FLight rain. Overcast.6 mph88%29.72 "Hg5 mi
11:55 pm
Wed, Jun 19
55 °FRain. Overcast.6 mph88%29.73 "Hg5 mi
11:35 pm55 °FRain. Overcast.5 mph88%29.73 "Hg7 mi
11:15 pm55 °FDrizzle. Overcast.3 mph88%29.73 "Hg10 mi
10:55 pm55 °FRain. Mostly cloudy.5 mph82%29.73 "Hg7 mi
10:35 pm55 °FRain. Mostly cloudy.6 mph82%29.74 "Hg10 mi
10:15 pm55 °FLight rain. Overcast.7 mph82%29.74 "Hg10 mi
9:55 pm54 °FDrizzle. Overcast.5 mph88%29.74 "Hg10 mi
9:35 pm54 °FLight rain. Overcast.No wind88%29.74 "Hg10 mi
9:15 pm54 °FDrizzle. Overcast.3 mph88%29.74 "Hg10 mi
7:45 pm55 °FDrizzle. Overcast.8 mph77%29.76 "Hg10 mi
6:45 pm57 °FOvercast.13 mph67%29.76 "Hg10 mi
5:45 pm59 °FOvercast.9 mph68%29.77 "Hg10 mi
4:45 pm59 °FOvercast.7 mph77%29.78 "Hg10 mi
3:45 pm59 °FMore clouds than sun.5 mph77%29.78 "Hg10 mi
3:15 pm57 °FCloudy.7 mph77%29.79 "Hg10 mi
2:45 pm57 °FLow clouds.9 mph77%29.80 "Hg10 mi
1:45 pm55 °FLow clouds.9 mph82%29.81 "Hg10 mi
12:45 pm54 °FDrizzle. Low clouds.7 mph88%29.83 "Hg10 mi
11:45 am54 °FLow clouds.10 mph88%29.84 "Hg10 mi
10:45 am54 °FLow clouds.9 mph94%29.85 "Hg10 mi
9:45 am57 °FDrizzle. Low clouds.5 mph88%29.84 "Hg7 mi
8:45 am57 °FDrizzle. Low clouds.10 mph88%29.85 "Hg7 mi
Weather by CustomWeather, © 2019

See weather overview